www.pogodaiklimat.ru

Погода и климат >> Архив погоды >> Португалия >> Флошир


ПОГОДА на Флошише

  • Прогноз погоды на Флошише
  • Монитор погоды на Флошише

АРХИВ ПОГОДЫ на Флошише

Время (UTC), дата Ветер
(напр.,м/с)
 
Видим.   Явления Облачность Т
(С)
Тd
(С)
f
(%)
Тe
(С)
Тes
(С)
Комфортность P
(гПа)
Po
(гПа)
Тmin
(С)
Tmax
(С)
R
(мм)
R24
(мм)
S
(см)
06 15.04 ЮЗ 9-16
{16}
н/о н/о +15.7 +13.3 86 +14 +14 1008.1 1004.5 +11.9 22
09 15.04 З 9-15
{19}
7000 м дождь 10/4 420 м
[Cu med, cong Ac As]
+14.6 +10.6 77 +12 +12 1006.1 1002.5
12 15.04 ЮЗ 9-15
{17}
18 км в посл. час дождь 10/6 300 м
[Cu Sc Ac As]
+15.1 +11.0 76 +13 +13 1005.0 1001.4 23
15 15.04 З 7-13
{16}
20 км {гроза, ливн. осадки} 8/5 480 м
[Cu Sc Ac lent Ci ing]
+16.0 +9.1 64 +15 +16 1001.3 997.8
18 15.04 З 9-15
{24}
20 км в посл. час ливневой дождь {гроза} 5/5 500 м
[Cb cap Ac lent Ci ing]
+14.2 +8.0 66 +12 +12 1000.5 996.9 +17.4 26
21 15.04 З 10-19
{19}
н/о н/о +12.9 +6.6 66 +10 +10 1001.1 997.5
00 16.04 З 12-19
{23}
н/о н/о +13.9 +9.1 73 +11 +11 1002.1 998.6 9
03 16.04 СЗ 11-18
{20}
н/о н/о +12.1 +9.5 84 +8 +8 1003.7 1000.1
06 16.04 СЗ 12-19
{19}
н/о н/о +11.6 +8.1 79 +7 +7 1006.4 1002.8 +11.6 17
09 16.04 СЗ 13-22
{22}
22 км {ливн. осадки} 5/4 540 м
[Cu Sc Ac lent Ci fib]
+13.7 +7.4 66 +10 +10 1009.9 1006.3
12 16.04 СЗ 11-17
{22}
24 км в посл. час ливневой дождь 4/4 570 м
[Cu Sc Ac lent Ci fib]
+14.2 +8.5 69 +11 +11 1011.4 1007.8 0.2
15 16.04 СЗ 8-14
{16}
24 км 4/4 600 м
[Cu Sc Ci fib]
+15.6 +7.4 58 +14 +16 1014.8 1011.2
18 16.04 СЗ 7-13
{14}
30 км 4/4 660 м
[Cu Sc Ci fib]
+14.6 +6.9 60 +13 +14 1012.9 1009.3 +16.0 0.2
21 16.04 З 3-7
{11}
н/о н/о +12.8 +5.7 62 +12 +12 1014.4 1010.8
00 17.04 З 2
{7}
н/о н/о +12.3 +6.6 68 +12 +12 1014.2 1010.6
03 17.04 ЮЗ 2 н/о н/о +10.7 +7.3 79 +9 +9 1013.0 1009.4
06 17.04 С 1 н/о н/о +13.4 +9.1 75 +14 +14 1012.9 1009.3 +10.5
09 17.04 В 4-8
{8}
22 км 9/9 300 м
[Cu Sc Ac lent Ci fib]
+15.1 +12.1 82 +14 +14 1013.3 1009.7
12 17.04 ЮВ 56-7
{8}
100 м слаб. морось 1/1 150 м
[]
+17.7 +17.7 100 +14 +14 1015.4 1011.8
15 17.04 ЮВ 2
{6}
20 км {морось} 10/10 270 м
[Cu Sc]
+17.8 +14.8 83 +18 +18 1015.4 1011.8
18 17.04 С 3-6
{6}
22 км {морось} 8/8 500 м
[Cu Sc Ac lent Ci fib]
+18.3 +12.9 71 +19 +20 1016.2 1012.7 +18.9 1
21 17.04 С 2
{7}
н/о н/о +17.8 +13.0 73 +18 +18 1015.6 1012.1
00 18.04 С 3-7
{10}
н/о н/о +17.8 +14.0 78 +18 +18 1016.6 1013.0
03 18.04 ЮЗ 5-11
{11}
н/о н/о +17.7 +14.4 81 +17 +17 1016.3 1012.8
06 18.04 ЮЗ 6-11
{12}
н/о н/о +17.5 +13.9 79 +17 +17 1016.0 1012.5 +17.5
09 18.04 Ю 6-11
{12}
20 км 9/9 360 м
[Cu Sc Ci fib]
+18.2 +14.2 77 +18 +18 1017.4 1013.8
12 18.04 Ю 6-10
{14}
22 км 6/6 420 м
[Cu Sc Ac lent Ci fib]
+19.8 +14.9 73 +22 +24 комфорт 1020.0 1016.5
15 18.04 Ю 6-9
{10}
26 км 5/5 450 м
[Cu Sc Ac lent Ci fib]
+19.9 +16.0 78 +22 +25 комфорт 1019.9 1016.4
18 18.04 Ю 7-12
{12}
30 км 1/1 500 м
[Cu Sc Ac lent]
+19.9 +15.1 74 +22 +23 комфорт 1018.7 1015.2 +20.4
21 18.04 Ю 7-13
{13}
н/о н/о +18.3 +14.4 78 +18 +18 1019.3 1015.7
00 19.04 Ю 4-8
{10}
н/о н/о +18.1 +14.7 81 +18 +18 1020.6 1017.1
03 19.04 Ю 5-10
{11}
н/о н/о +18.5 +14.4 77 +19 +19 1020.5 1017.0
06 19.04 Ю 7 н/о н/о +17.6 +15.7 89 +17 +17 1020.1 1016.5 +17.4
09 19.04 Ю 6-9
{11}
27 км 6/6 450 м
[Cu Sc Ac lent Ci fib]
+18.7 +15.0 79 +19 +20 1021.2 1017.7
12 19.04 Ю 6-10
{11}
22 км в посл. час дождь {морось} 9/9 240 м
[Cu Sc Ac lent Ci fib]
+19.0 +17.0 88 +20 +21 1022.4 1018.8
15 19.04 Ю 6-10
{12}
18 км в посл. час дождь {морось} 9/9 210 м
[Cu Sc Ac lent Ci fib]
+18.4 +18.0 98 +19 +19 1022.8 1019.2
18 19.04 Ю 8-13
{13}
28 км {морось} 6/6 300 м
[Cu Sc Ac lent Ci fib]
+18.0 +16.6 92 +17 +18 1022.6 1019.0 +19.4
21 19.04 Ю 6-9
{11}
н/о н/о +17.1 +17.1 100 +16 +16 1024.2 1020.6
00 20.04 ЮВ 5-8
{8}
н/о н/о +16.6 +16.6 100 +16 +16 1024.9 1021.3
03 20.04 ЮВ 5-8
{10}
н/о н/о +16.6 +16.6 100 +16 +16 1024.5 1020.9
06 20.04 ЮВ 6-9
{11}
н/о н/о +16.1 +16.1 100 +15 +15 1024.8 1021.2 +16.0
09 20.04 ЮВ 5-8
{8}
20 км {морось} 9/9 180 м
[Cu Sc]
+16.8 +16.8 100 +16 +16 1026.6 1023.0
12 20.04 Ю 6
{9}
20 км {морось} 8/6 240 м
[Cu Sc Ci fib]
+18.2 +17.2 94 +18 +20 1027.7 1024.1
15 20.04 Ю 4-7
{8}
28 км 4/1 480 м
[Cu Sc Ci sp]
+19.2 +16.2 83 +21 +30 комфорт 1029.2 1025.6
18 20.04 ЮВ 3
{5}
30 км 5/4 480 м
[Cu Sc Ci sp]
+18.1 +15.4 84 +18 +21 1029.7 1026.1 +19.7
21 20.04 нст 1 н/о н/о +16.1 +16.1 100 +17 +17 1030.7 1027.1
00 21.04 ЮЗ 2 н/о н/о +15.2 +15.2 100 +15 +15 1031.6 1027.9
03 21.04 нст 1 н/о н/о +15.8 +15.8 100 +16 +16 1031.3 1027.7
06 21.04 З 1 н/о н/о +13.4 +13.4 100 +13 +13 1030.1 1026.4 +13.4
09 21.04 С 1 12 км 9/9 150 м
[Cu Sc Ci fib]
+15.8 +15.8 100 +16 +17 1030.6 1027.0
12 21.04 С 2 10 км 10/10 60 м
[Frnb]
+16.9 +16.9 100 +17 +17 1030.4 1026.8
15 21.04 ЮВ 2 20 км 9/9 240 м
[Cu Sc Ci fib]
+17.9 +16.2 90 +18 +20 1029.0 1025.4
18 21.04 СЗ 5-9
{9}
30 км 6/5 480 м
[Cu Sc Ci sp]
+18.6 +13.7 73 +19 +21 1027.9 1024.3 +20.8
21 21.04 СЗ 3-6
{9}
н/о н/о +17.5 +13.7 78 +18 +18 1027.4 1023.8
00 22.04 СЗ 5-10
{11}
н/о н/о +16.4 +13.2 81 +15 +15 1027.1 1023.5
03 22.04 СЗ 5-10
{10}
н/о н/о +16.6 +13.2 80 +16 +16 1026.1 1022.5

 

Местоположение метеостанции Флошир (Португалия): широта 39.45 долгота -31.13 высота над уровнем моря 29 м.

В архиве по умолчанию представлена погода на Флошише за последнюю неделю. Архивные данные за месяц целиком и за предыдущие месяцы, начиная с января 2011 года, Вы можете получить, выбрав интересующий диапазон дат из раскрывающегося списка и нажав кнопку "Ввод!".


*Определитесь, кто Вы:
робот инопланетянин человек

Внимание! Время в таблицах - всемирное. Для получения местного времени необходимо прибавить поправку, которая равна 0 ч.

Смотрите также архив погоды в соседних городах и на ближайших метеорологических станциях:

Погода в Каштелу-Бранку (Португалия) (233 км)
Погода в Орте (Португалия) (240 км)
Погода в Пико (Португалия) (253 км)
Погода на Острове Грасьоса (Португалия) (270 км)
Погода в Сан-Жоржи (Португалия) (270 км)
Погода в Ангра-ду-Эроижму (Португалия) (349 км)
Погода в Аэропорту Лажеша (Португалия) (356 км)
Погода в Понта-Делгаде (Португалия) (509 км)
Погода в Санта-Марии (Португалия) (590 км)
Погода в Фуншале (Португалия) (1485 км)

Пояснения к столбцам:

Ветер - указаны скорость ветра в м/с - средняя за 10 мин, порывы в срок и между сроками (в фигурных скобках) и направление, откуда дует ветер: С - северный, СВ - северо-восточный, В - восточный, ЮВ - юго-восточный, Ю - южный, ЮЗ - юго-западный, З - западный, СЗ - северо-западный.
Видимость - горизонтальная дальность видимости в метрах или километрах. При видимости от 1 до 10 км при отсутствии осадков обычно наблюдается дымка, при ухудшении видимости до 1 км и менее - туман. В сухую погоду видимость может ухудшаться дымом, пылью или мглою.
Явления - указаны атмосферные явления, наблюдавшиеся в срок или в последний час перед сроком; фигурными скобками обозначены явления, наблюдавшиеся между сроками (за 1-3 часа до срока); квадратными скобками обозначены град или гололедные отложения с указанием их диаметра в мм.
Облачность - указаны через наклонную черту общая и нижняя облачность в баллах и высота нижней границы облаков в метрах; квадратными скобками обозначены формы облаков: Ci - перистые, Cs - перисто-слоистые, Cc - перисто-кучевые, Ac - высококучевые, As - высокослоистые, Sc - слоисто-кучевые, Ns - слоисто-дождевые, Cu - кучевые, Cb - кучево-дождевые. Подробнее классификацию облаков см. в Атласе облаков (PDF).
T - Температура воздуха - температура, измеренная на высоте 2 м над землей.
Td - Температура точки росы - температура, при понижении до которой содержащийся в воздухе водяной пар достигнет насыщения.
f - Относительная влажность воздуха - влажноcть воздуха, измеренная на высоте 2 м над землей.
Te - Эффективная температура - температура, которую ощущает одетый по сезону человек в тени. Характеристика душности погоды. При расчете учитывается влияние влажности воздуха и скорости ветра на теплоощущения человека.
Tes - Эффективная температура на солнце - температура, которую ощущает человек, с поправкой на солнечный нагрев. Характеристика знойности погоды. Зависит от высоты солнца над горизонтом, облачности и скорости ветра. Ночью, в пасмурную погоду, а также при ветре 12 м/с и более поправка равна нулю.
P - Атмосферное давление - приведенное к уровню моря атмосферное давление.
Po - Атмосферное давление - измеренное на уровне метеостанции атмосферное давление.
Tmin - Минимальная температура - минимум температуры воздуха на высоте 2 м над землей.
Tmax - Максимальная температура - максимум температуры воздуха на высоте 2 м над землей.
R - Количество осадков - Количество выпавших осадков за период времени, мм. При наведении курсора мыши на число - период времени, за который выпало указанное количество осадков.
R24 - Количество осадков - Количество выпавших осадков за 24 часа, мм.
S - Снежный покров - Высота снежного покрова, см. При наведении курсора мыши на число - состояние снежного покрова и степень покрытия местности в баллах.